This is the latest recevied weather packets stored in our database for station/object KD8FRE. If no packets are shown the sender has not sent any weather packets the latest 1 day(s).
| Time | Temp. | Humidity | Pressure | Rain* | Wind** | Luminosity | Snow |
|---|---|---|---|---|---|---|---|
| 1778014732 | 11.67° C | 52% | 1008.1 hPa | 0 mm | 3.13 m/s, 269° | 82 W/m² | - |
| 1778014431 | 11.67° C | 59% | 1008 hPa | 0 mm | 1.79 m/s, 263° | 64 W/m² | - |
| 1778014127 | 11.67° C | 61% | 1008 hPa | 0 mm | 2.24 m/s, 242° | 64 W/m² | - |
| 1778013825 | 11.67° C | 60% | 1007.9 hPa | 0 mm | 2.68 m/s, 274° | 63 W/m² | - |
| 1778013522 | 11.67° C | 60% | 1008 hPa | 0 mm | 3.13 m/s, 311° | 61 W/m² | - |
| 1778013218 | 11.67° C | 61% | 1007.8 hPa | 0 mm | 2.68 m/s, 236° | 60 W/m² | - |
| 1778012915 | 11.67° C | 61% | 1007.9 hPa | 0 mm | 2.24 m/s, 251° | 57 W/m² | - |
| 1778012611 | 11.67° C | 60% | 1007.8 hPa | 0 mm | 2.24 m/s, 274° | 61 W/m² | - |
| 1778012308 | 12.22° C | 60% | 1007.9 hPa | 0 mm | 4.02 m/s, 281° | 57 W/m² | - |
| 1778012006 | 12.22° C | 61% | 1007.9 hPa | 0 mm | 3.13 m/s, 273° | 80 W/m² | - |
| 1778011704 | 12.22° C | 60% | 1007.9 hPa | 0 mm | 2.24 m/s, 314° | 105 W/m² | - |
| 1778011400 | 12.22° C | 60% | 1007.8 hPa | 0 mm | 1.79 m/s, 260° | 114 W/m² | - |
| 1778011096 | 12.22° C | 60% | 1007.8 hPa | 0 mm | 1.79 m/s, 292° | 141 W/m² | - |
| 1778010794 | 12.22° C | 59% | 1008 hPa | 0 mm | 2.68 m/s, 290° | 135 W/m² | - |
| 1778010490 | 12.22° C | 61% | 1008 hPa | 0 mm | 2.24 m/s, 281° | 147 W/m² | - |
| 1778010188 | 12.22° C | 59% | 1007.9 hPa | 0 mm | 3.58 m/s, 274° | 122 W/m² | - |
| 1778009883 | 12.22° C | 59% | 1008.1 hPa | 0 mm | 2.24 m/s, 269° | 109 W/m² | - |
| 1778009581 | 12.22° C | 58% | 1008 hPa | 0 mm | 3.13 m/s, 267° | 100 W/m² | - |
| 1778009279 | 12.22° C | 58% | 1008.1 hPa | 0 mm | 2.68 m/s, 270° | 90 W/m² | - |
| 1778008976 | 12.22° C | 59% | 1008.1 hPa | 0 mm | 1.79 m/s, 301° | 103 W/m² | - |
| 1778008674 | 12.22° C | 59% | 1008.1 hPa | 0 mm | 1.79 m/s, 303° | 108 W/m² | - |
| 1778008372 | 12.22° C | 60% | 1008.2 hPa | 0 mm | 3.13 m/s, 266° | 143 W/m² | - |
| 1778008068 | 12.22° C | 59% | 1008 hPa | 0 mm | 2.24 m/s, 197° | 143 W/m² | - |
| 1778007763 | 12.22° C | 58% | 1008.1 hPa | 0 mm | 3.13 m/s, 273° | 100 W/m² | - |
| 1778007460 | 12.22° C | 58% | 1008.1 hPa | 0 mm | 2.68 m/s, 276° | 91 W/m² | - |
* Rain latest hour (hover to see other rain measurements)
** Current wind speed in m/s (hover to see current wind gust speed)